AAL3102 KCLT-KJFK

Flight info

Callsign AAL3102
Flight time N/A
Altitude 11000
Route BARMY5 TYI Q64 SAWED Q108 SIE CAMRN5
Aircraft B772/H-SDE2E3FGHIJ5LORVWXY/LB1D1

Departure

Time N/A
Airport Charlotte Douglas International Airport (KCLT)

Arrival

Time 2026-05-06 23:01
Airport John F. Kennedy International Airport (KJFK)
Time Latitude Longitude Altitude Speed Heading
2026-05-06 22:52 40.63724 -73.48700 3208 ft 262 kts 357°
2026-05-06 22:52 40.65535 -73.48549 3006 ft 259 kts 357°
2026-05-06 22:52 40.67345 -73.48401 2988 ft 262 kts 357°
2026-05-06 22:53 40.69146 -73.48255 2979 ft 256 kts 356°
2026-05-06 22:53 40.70881 -73.48111 2978 ft 244 kts 357°
2026-05-06 22:53 40.72528 -73.47960 2984 ft 232 kts 357°
2026-05-06 22:53 40.74095 -73.47897 2980 ft 216 kts 342°
2026-05-06 22:54 40.75363 -73.48659 2825 ft 195 kts 309°
2026-05-06 22:54 40.76195 -73.50057 2261 ft 199 kts 297°
2026-05-06 22:54 40.76970 -73.51573 2008 ft 193 kts 297°
2026-05-06 22:54 40.77716 -73.53024 1984 ft 197 kts 297°
2026-05-06 22:55 40.78483 -73.54541 1976 ft 198 kts 297°
2026-05-06 22:55 40.79172 -73.56091 1981 ft 192 kts 282°
2026-05-06 22:55 40.79312 -73.57820 1982 ft 193 kts 268°
2026-05-06 22:55 40.79327 -73.59565 1981 ft 187 kts 263°
2026-05-06 22:56 40.78905 -73.61145 1978 ft 182 kts 239°
2026-05-06 22:56 40.78260 -73.62498 1970 ft 169 kts 237°
2026-05-06 22:56 40.77641 -73.63780 1974 ft 161 kts 237°
2026-05-06 22:56 40.77053 -73.65046 1974 ft 162 kts 239°
2026-05-06 22:57 40.76415 -73.66238 1973 ft 162 kts 220°
2026-05-06 22:57 40.75440 -73.67014 1979 ft 164 kts 211°
2026-05-06 22:57 40.74450 -73.67745 1974 ft 163 kts 213°
2026-05-06 22:57 40.73473 -73.68513 1974 ft 163 kts 213°
2026-05-06 22:58 40.72493 -73.69277 1827 ft 159 kts 213°
2026-05-06 22:58 40.71521 -73.70036 1620 ft 166 kts 212°
2026-05-06 22:58 40.70539 -73.70793 1422 ft 162 kts 211°
2026-05-06 22:58 40.69560 -73.71550 1221 ft 160 kts 212°
2026-05-06 22:59 40.68644 -73.72276 970 ft 149 kts 212°
2026-05-06 22:59 40.67794 -73.72942 775 ft 137 kts 211°
2026-05-06 22:59 40.67029 -73.73532 579 ft 120 kts 211°
2026-05-06 22:59 40.66285 -73.74108 438 ft 125 kts 211°
2026-05-06 23:00 40.65551 -73.74686 260 ft 121 kts 211°
2026-05-06 23:00 40.64847 -73.75230 123 ft 115 kts 211°
2026-05-06 23:00 40.64169 -73.75764 23 ft 106 kts 210°
2026-05-06 23:00 40.63685 -73.76141 22 ft 56 kts 211°
2026-05-06 23:01 40.63436 -73.76337 22 ft 33 kts 210°
2026-05-06 23:01 40.63294 -73.76505 21 ft 23 kts 235°
2026-05-06 23:01 40.63238 -73.76679 20 ft 18 kts 271°
2026-05-06 23:01 40.63282 -73.76813 19 ft 14 kts 302°
2026-05-06 23:02 40.63326 -73.76910 19 ft 10 kts 300°
2026-05-06 23:02 40.63370 -73.77009 19 ft 16 kts 301°
2026-05-06 23:02 40.63423 -73.77124 21 ft 13 kts 301°
2026-05-06 23:02 40.63464 -73.77215 21 ft 10 kts 301°
2026-05-06 23:03 40.63514 -73.77323 22 ft 18 kts 300°
2026-05-06 23:03 40.63578 -73.77466 22 ft 16 kts 301°
2026-05-06 23:03 40.63628 -73.77570 22 ft 11 kts 308°
2026-05-06 23:03 40.63663 -73.77636 22 ft 6 kts 291°
2026-05-06 23:04 40.63661 -73.77688 22 ft 6 kts 245°
2026-05-06 23:04 40.63612 -73.77746 22 ft 11 kts 214°
2026-05-06 23:04 40.63551 -73.77796 21 ft 8 kts 210°
2026-05-06 23:04 40.63504 -73.77831 19 ft 10 kts 209°
2026-05-06 23:05 40.63424 -73.77914 19 ft 18 kts 237°
2026-05-06 23:05 40.63430 -73.78082 19 ft 20 kts 300°
2026-05-06 23:05 40.63493 -73.78225 19 ft 13 kts 300°
2026-05-06 23:05 40.63548 -73.78345 19 ft 18 kts 301°
2026-05-06 23:06 40.63626 -73.78518 19 ft 22 kts 300°
2026-05-06 23:06 40.63690 -73.78660 19 ft 14 kts 300°
2026-05-06 23:06 40.63737 -73.78763 20 ft 12 kts 302°
2026-05-06 23:06 40.63781 -73.78858 21 ft 11 kts 301°
2026-05-06 23:07 40.63818 -73.78938 22 ft 8 kts 300°
2026-05-06 23:07 40.63851 -73.79014 22 ft 15 kts 300°
2026-05-06 23:07 40.63942 -73.79218 21 ft 31 kts 300°
2026-05-06 23:07 40.64048 -73.79442 21 ft 25 kts 310°
2026-05-06 23:08 40.64187 -73.79504 22 ft 19 kts
2026-05-06 23:08 40.64299 -73.79495 22 ft 12 kts
2026-05-06 23:08 40.64377 -73.79491 22 ft 9 kts
2026-05-06 23:08 40.64464 -73.79497 23 ft 21 kts 354°
2026-05-06 23:09 40.64639 -73.79559 22 ft 27 kts 327°
2026-05-06 23:09 40.64762 -73.79572 22 ft 16 kts 43°
2026-05-06 23:09 40.64811 -73.79466 22 ft 11 kts 62°
2026-05-06 23:09 40.64846 -73.79380 22 ft 10 kts 61°
2026-05-06 23:10 40.64860 -73.79311 22 ft 4 kts 109°
2026-05-06 23:10 40.64849 -73.79298 22 ft 2 kts 152°
2026-05-06 23:10 40.64827 -73.79283 22 ft 2 kts 153°
2026-05-06 23:10 40.64820 -73.79279 22 ft 2 kts 152°
2026-05-06 23:11 40.64809 -73.79270 22 ft 0 kts 151°